Campo, CA

3:29 AM PST on December 10, 2016 (GMT -0800)
Campo

Weather History for KCZZ - July, 2013

Change the Weather History Date:

Wednesday, July 3, 2013

  Actual Average Record
Temperature  
Mean Temperature 76 °F 71 °F  
Max Temperature 94 °F 92 °F 105 °F (1973)
Min Temperature 57 °F 49 °F 34 °F (1956)
Degree Days  
Heating Degree Days 0 1  
Month to date heating degree days 0 3  
Since 1 June heating degree days 28 59  
Since 1 July heating degree days 0 3  
Cooling Degree Days 11 6  
Month to date cooling degree days 42 18  
Year to date cooling degree days 176 140  
Since 1 June cooling degree days 149 110  
Growing Degree Days 25 (Base 50)    
Moisture  
Dew Point 51 °F    
Average Humidity 46    
Maximum Humidity 69    
Minimum Humidity 22    
Precipitation  
Precipitation 0.00 in 0.00 in 0.00 in (2016)
Month to date precipitation 0.00 0.01  
Year to date precipitation 4.78 10.16  
Since 1 July precipitation 0.00  
Snow  
Snow 0.00 in - - ()
Month to date snowfall 0.0  
Year to date snowfall 0.0  
Snow Depth 0.00 in    
Sea Level Pressure  
Sea Level Pressure 29.82 in    
Wind  
Wind Speed 7 mph (SW)    
Max Wind Speed 21 mph    
Max Gust Speed 24 mph    
T = Trace of Precipitation, MM = Missing Value Source: NWS Daily Summary

Daily Weather History Graph

Daily Weather History Graph

Search for Another Location

Airport or City:

Trip Planner

Search our weather history database for the weather conditions in past years. The results will help you decide how hot, cold, wet, or windy it might be!

Date:

Astronomy

Jul. 03, 2013 Rise Set
Actual Time 5:42 AM PDT 7:57 PM PDT
Civil Twilight 5:14 AM PDT 8:25 PM PDT
Nautical Twilight 4:39 AM PDT 9:00 PM PDT
Astronomical Twilight 4:02 AM PDT 9:37 PM PDT
Moon 2:17 AM PDT (7/3) 4:16 PM PDT (7/3)
Length of Visible Light 15h 11m
Length of Day
14h 14m
Waning Crescent, 17% of the Moon is Illuminated
Jul 3
Waning Crescent
Jul 8
New
Jul 15
First Quarter
Jul 22
Full
Jul 29
Last Quarter

Hourly Weather History & Observations

Time (PDT) Temp. Heat Index Dew Point Humidity Pressure Visibility Wind Dir Wind Speed Gust Speed Precip Events Conditions
12:52 AM 66.0 °F - 52.0 °F 60% 29.86 in - Calm Calm - N/A   Unknown
1:52 AM 64.9 °F - 51.1 °F 61% 29.85 in - Calm Calm - N/A   Unknown
2:52 AM 61.0 °F - 50.0 °F 67% 29.84 in - ENE 3.5 mph - N/A   Unknown
3:52 AM 62.1 °F - 50.0 °F 65% 29.84 in - Calm Calm - N/A   Unknown
4:52 AM 60.1 °F - 48.9 °F 67% 29.85 in - Calm Calm - N/A   Unknown
5:52 AM 60.1 °F - 48.0 °F 64% 29.86 in - NE 4.6 mph - N/A   Unknown
6:52 AM 63.0 °F - 48.0 °F 58% 29.87 in - Calm Calm - N/A   Unknown
7:52 AM 73.0 °F - 51.1 °F 46% 29.87 in - Calm Calm - N/A   Unknown
8:52 AM 82.9 °F - 46.9 °F 28% 29.84 in - SSW 12.7 mph - N/A   Unknown
9:52 AM 88.0 °F - 45.0 °F 22% 29.83 in - SSW 16.1 mph - N/A   Unknown
10:52 AM 88.0 °F - 46.0 °F 23% 29.83 in - Variable 5.8 mph - N/A   Unknown
11:52 AM 87.1 °F - 50.0 °F 28% 29.83 in - SW 12.7 mph - N/A   Unknown
12:52 PM 86.0 °F - 52.0 °F 31% 29.83 in - SW 13.8 mph - N/A   Unknown
1:52 PM 90.0 °F - 48.9 °F 24% 29.82 in - WSW 5.8 mph - N/A   Unknown
2:52 PM 90.0 °F - 48.9 °F 24% 29.81 in - SW 13.8 mph - N/A   Unknown
3:52 PM 90.0 °F 87.7 °F 54.0 °F 29% 29.77 in - SSW 19.6 mph - N/A   Unknown
4:52 PM 86.0 °F 84.5 °F 55.0 °F 35% 29.77 in - SW 13.8 mph - N/A   Unknown
5:52 PM 84.9 °F 83.3 °F 54.0 °F 34% 29.76 in - SW 12.7 mph - N/A   Unknown
6:52 PM 82.0 °F 81.4 °F 55.0 °F 39% 29.76 in - SW 15.0 mph - N/A   Unknown
7:52 PM 75.9 °F - 55.0 °F 48% 29.78 in - SW 11.5 mph - N/A   Unknown
8:52 PM 73.9 °F - 53.1 °F 48% 29.77 in - Calm Calm - N/A   Unknown
9:52 PM 71.1 °F - 54.0 °F 55% 29.78 in - South 8.1 mph - N/A   Unknown
10:52 PM 66.9 °F - 52.0 °F 59% 29.80 in - Calm Calm - N/A   Unknown
11:52 PM 64.0 °F - 50.0 °F 60% 29.80 in - North 3.5 mph - N/A   Unknown